H1 CPF 2 NER 2024 4 7 9 098 01 glonass128 H2 1106401 9128 37867 2024 4 7 0 0 0 2024 4 10 23 45 0 900 1 1 0 0 0 1 H9 10 0 60407 0.00000 0 5376902.692 -19553945.727 15562192.687 10 0 60407 900.00000 0 5536000.021 -17511206.621 17783156.468 10 0 60407 1800.00000 0 5895516.840 -15239562.775 19660985.820 10 0 60407 2700.00000 0 6476089.638 -12800865.642 21159488.523 10 0 60407 3600.00000 0 7286600.901 -10261372.192 22249743.872 10 0 60407 4500.00000 0 8323629.719 -7689187.293 22910648.957 10 0 60407 5400.00000 0 9571424.345 -5151642.310 23129321.753 10 0 60407 6300.00000 0 11002399.185 -2712715.557 22901353.941 10 0 60407 7200.00000 0 12578137.607 -430598.741 22230908.478 10 0 60407 8100.00000 0 14250861.581 1644492.133 21130659.200 10 0 60407 9000.00000 0 15965310.116 3472172.312 19621572.054 10 0 60407 9900.00000 0 17660951.482 5023334.084 17732530.007 10 0 60407 10800.00000 0 19274439.951 6281122.780 15499806.286 10 0 60407 11700.00000 0 20742216.943 7241401.598 12966393.309 10 0 60407 12600.00000 0 22003149.353 7912684.470 10181197.538 10 0 60407 13500.00000 0 23001095.143 8315538.116 7198113.413 10 0 60407 14400.00000 0 23687288.048 8481476.596 4074992.304 10 0 60407 15300.00000 0 24022439.571 8451393.302 872525.306 10 0 60407 16200.00000 0 23978467.423 8273595.459 -2346938.911 10 0 60407 17100.00000 0 23539774.501 8001523.794 -5520617.865 10 0 60407 18000.00000 0 22704021.170 7691254.372 -8586535.626 10 0 60407 18900.00000 0 21482355.014 7398889.739 -11484753.860 10 0 60407 19800.00000 0 19899085.507 7177952.074 -14158567.312 10 0 60407 20700.00000 0 17990815.194 7076891.563 -16555637.861 10 0 60407 21600.00000 0 15805062.662 7136818.651 -18629042.516 10 0 60407 22500.00000 0 13398434.896 7389559.265 -20338212.574 10 0 60407 23400.00000 0 10834426.347 7856118.164 -21649743.613 10 0 60407 24300.00000 0 8180938.330 8545617.612 -22538059.107 10 0 60407 25200.00000 0 5507624.354 9454757.769 -22985913.840 10 0 60407 26100.00000 0 2883174.363 10567822.247 -22984727.072 10 0 60407 27000.00000 0 372653.080 11857228.445 -22534739.343 10 0 60407 27900.00000 0 -1964995.241 13284598.592 -21644990.749 10 0 60407 28800.00000 0 -4079171.001 14802304.900 -20333122.491 10 0 60407 29700.00000 0 -5929480.045 16355421.962 -18625007.232 10 0 60407 30600.00000 0 -7487154.818 17884002.346 -16554217.388 10 0 60407 31500.00000 0 -8735978.899 19325577.836 -14161343.721 10 0 60407 32400.00000 0 -9672679.438 20617779.779 -11493179.509 10 0 60407 33300.00000 0 -10306774.836 21700967.480 -8601788.001 10 0 60407 34200.00000 0 -10659888.029 22520753.996 -5543473.008 10 0 60407 35100.00000 0 -10764558.171 23030323.681 -2377673.907 10 0 60407 36000.00000 0 -10662604.193 23192445.334 834192.577 10 0 60407 36900.00000 0 -10403111.965 22981098.118 4029920.873 10 0 60407 37800.00000 0 -10040131.795 22382644.101 7147712.453 10 0 60407 38700.00000 0 -9630184.273 21396500.423 10127356.622 10 0 60407 39600.00000 0 -9229679.522 20035284.944 12911374.524 10 0 60407 40500.00000 0 -8892357.661 18324430.846 15446105.943 10 0 60407 41400.00000 0 -8666856.678 16301287.205 17682719.990 10 0 60407 42300.00000 0 -8594508.021 14013743.148 19578132.387 10 0 60407 43200.00000 0 -8707450.505 11518432.127 21095814.041 10 0 60407 44100.00000 0 -9027139.909 8878589.301 22206477.501 10 0 60407 45000.00000 0 -9563315.527 6161648.661 22888629.915 10 0 60407 45900.00000 0 -10313466.503 3436676.661 23128983.197 10 0 60407 46800.00000 0 -11262820.768 771745.540 22922714.222 10 0 60407 47700.00000 0 -12384858.442 -1768647.924 22273569.933 10 0 60407 48600.00000 0 -13642330.493 -4126014.072 21193814.607 10 0 60407 49500.00000 0 -14988742.935 -6250053.842 19704018.688 10 0 60407 50400.00000 0 -16370247.708 -8100504.839 17832691.171 10 0 60407 51300.00000 0 -17727864.311 -9648573.863 15615760.039 10 0 60407 52200.00000 0 -18999941.974 -10877895.947 13095907.989 10 0 60407 53100.00000 0 -20124761.248 -11784978.831 10321773.541 10 0 60407 54000.00000 0 -21043166.987 -12379112.746 7347030.533 10 0 60407 54900.00000 0 -21701122.125 -12681747.459 4229361.829 10 0 60407 55800.00000 0 -22052073.732 -12725360.945 1029345.886 10 0 60407 56700.00000 0 -22059029.604 -12551865.958 -2190722.673 10 0 60407 57600.00000 0 -21696254.966 -12210620.843 -5368055.289 10 0 60407 58500.00000 0 -20950514.337 -11756128.664 -8440609.520 10 0 60407 59400.00000 0 -19821802.655 -11245522.764 -11348321.063 10 0 60407 60300.00000 0 -18323531.531 -10735946.872 -14034301.476 10 0 60407 61200.00000 0 -16482159.991 -10281943.046 -16445975.719 10 0 60407 62100.00000 0 -14336283.326 -9932960.826 -18536134.821 10 0 60407 63000.00000 0 -11935217.260 -9731096.002 -20263880.771 10 0 60407 63900.00000 0 -9337136.822 -9709157.449 -21595443.218 10 0 60407 64800.00000 0 -6606848.686 -9889146.134 -22504850.577 10 0 60407 65700.00000 0 -3813291.600 -10281212.238 -22974441.584 10 0 60407 66600.00000 0 -1026871.166 -10883135.298 -22995207.028 10 0 60407 67500.00000 0 1683257.958 -11680349.334 -22566955.368 10 0 60407 68400.00000 0 4251847.548 -12646511.082 -21698299.837 10 0 60407 69300.00000 0 6620037.329 -13744585.922 -20406468.646 10 0 60407 70200.00000 0 8737558.885 -14928403.773 -18716943.605 10 0 60407 71100.00000 0 10564570.912 -16144617.248 -16662936.129 10 0 60407 72000.00000 0 12073050.916 -17334977.405 -14284712.814 10 0 60407 72900.00000 0 13247687.928 -18438829.368 -11628785.760 10 0 60407 73800.00000 0 14086242.256 -19395721.339 -8746985.217 10 0 60407 74700.00000 0 14599361.027 -20148016.329 -5695434.345 10 0 60407 75600.00000 0 14809861.194 -20643396.634 -2533447.292 10 0 60407 76500.00000 0 14751513.923 -20837156.313 677627.041 10 0 60407 77400.00000 0 14467384.656 -20694186.476 3875592.659 10 0 60407 78300.00000 0 14007801.222 -20190571.718 6998602.608 10 0 60407 79200.00000 0 13428037.019 -19314732.571 9986341.078 10 0 60407 80100.00000 0 12785807.361 -18068068.021 12781169.741 10 0 60407 81000.00000 0 12138683.900 -16465072.784 15329217.835 10 0 60407 81900.00000 0 11541534.610 -14532925.516 17581396.983 10 0 60407 82800.00000 0 11044095.069 -12310565.489 19494323.409 10 0 60407 83700.00000 0 10688770.855 -9847295.683 21031132.113 10 0 60407 84600.00000 0 10508761.110 -7200969.005 22162169.527 10 0 60407 85500.00000 0 10526580.111 -4435830.788 22865553.167 10 0 60408 0.00000 0 10753037.564 -1620104.501 23127588.894 10 0 60408 900.00000 0 11186720.097 1176583.997 22943038.537 10 0 60408 1800.00000 0 11813995.865 3885836.505 22315232.465 10 0 60408 2700.00000 0 12609543.951 6443065.992 21256024.638 10 0 60408 3600.00000 0 13537388.421 8789925.379 19785589.050 10 0 60408 4500.00000 0 14552396.596 10876484.253 17932059.599 10 0 60408 5400.00000 0 15602181.795 12663063.861 15731017.736 10 0 60408 6300.00000 0 16629333.634 14121654.198 13224834.980 10 0 60408 7200.00000 0 17573884.650 15236853.350 10461880.288 10 0 60408 8100.00000 0 18375911.171 16006288.473 7495605.099 10 0 60408 9000.00000 0 18978159.620 16440498.915 4383521.787 10 0 60408 9900.00000 0 19328587.060 16562284.470 1186094.036 10 0 60408 10800.00000 0 19382707.264 16405544.359 -2034439.858 10 0 60408 11700.00000 0 19105640.777 16013654.608 -5215287.610 10 0 60408 12600.00000 0 18473779.177 15437451.691 -8294342.645 10 0 60408 13500.00000 0 17475989.690 14732907.887 -11211417.019 10 0 60408 14400.00000 0 16114305.724 13958597.750 -13909441.333 10 0 60408 15300.00000 0 14404070.955 13173064.736 -16335605.730 10 0 60408 16200.00000 0 12373528.274 12432201.814 -18442417.193 10 0 60408 17100.00000 0 10062869.131 11786759.604 -20188650.182 10 0 60408 18000.00000 0 7522782.394 11280090.113 -21540170.028 10 0 60408 18900.00000 0 4812563.700 10946223.813 -22470611.525 10 0 60408 19800.00000 0 1997865.316 10808363.116 -22961898.587 10 0 60408 20700.00000 0 -851817.919 10877856.876 -23004594.504 10 0 60408 21600.00000 0 -3665819.895 11153699.369 -22598076.290 10 0 60408 22500.00000 0 -6375018.709 11622574.202 -21750530.568 10 0 60408 23400.00000 0 -8914481.781 12259439.832 -20478772.357 10 0 60408 24300.00000 0 -11225929.729 13028629.946 -18807891.962 10 0 60408 25200.00000 0 -13259916.484 13885419.932 -16770738.700 10 0 60408 26100.00000 0 -14977635.776 14777990.851 -14407253.533 10 0 60408 27000.00000 0 -16352280.639 15649705.771 -11763665.606 10 0 60408 27900.00000 0 -17369901.962 16441600.528 -8891570.188 10 0 60408 28800.00000 0 -18029733.568 17094982.529 -5846907.661 10 0 60408 29700.00000 0 -18343974.017 17554027.347 -2688864.749 10 0 60408 30600.00000 0 -18337038.037 17768263.783 521279.714 10 0 60408 31500.00000 0 -18044312.512 17694843.445 3721341.566 10 0 60408 32400.00000 0 -17510472.168 17300500.668 6849427.703 10 0 60408 33300.00000 0 -16787427.811 16563122.046 9845119.499 10 0 60408 34200.00000 0 -15931994.452 15472861.467 12650621.469 10 0 60408 35100.00000 0 -15003377.425 14032755.560 15211854.614 10 0 60408 36000.00000 0 -14060581.211 12258815.007 17479475.361 10 0 60408 36900.00000 0 -13159848.170 10179588.498 19409802.663 10 0 60408 37800.00000 0 -12352232.449 7835217.291 20965637.736 10 0 60408 38700.00000 0 -11681408.391 5276018.623 22116962.869 10 0 60408 39600.00000 0 -11181803.011 2560654.936 22841507.719 10 0 60408 40500.00000 0 -10877128.882 -246037.795 23125173.618 10 0 60408 41400.00000 0 -10779377.639 -3075475.764 22962308.487 10 0 60408 42300.00000 0 -10888315.973 -5857909.964 22355827.083 10 0 60408 43200.00000 0 -11191505.781 -8525062.092 21317173.554 10 0 60408 44100.00000 0 -11664849.155 -11012707.515 19866125.528 10 0 60408 45000.00000 0 -12273637.590 -13263100.444 18030441.459 10 0 60408 45900.00000 0 -12974064.047 -15227142.151 15845355.470 10 0 60408 46800.00000 0 -13715137.204 -16866202.608 13352926.691 10 0 60408 47700.00000 0 -14440919.945 -18153519.257 10601252.891 10 0 60408 48600.00000 0 -15092999.858 -19075113.310 7643561.131 10 0 60408 49500.00000 0 -15613088.735 -19630183.490 4537191.000 10 0 60408 50400.00000 0 -15945641.491 -19830958.549 1342488.824 10 0 60408 51300.00000 0 -16040382.881 -19702012.715 -1878366.251 10 0 60408 52200.00000 0 -15854633.192 -19279071.098 -5062581.267 10 0 60408 53100.00000 0 -15355331.711 -18607354.276 -8147988.756 10 0 60408 54000.00000 0 -14520668.969 -17739531.547 -11074280.526 10 0 60408 54900.00000 0 -13341255.101 -16733369.775 -13784209.698 10 0 60408 55800.00000 0 -11820771.459 -15649178.543 -16224735.058 10 0 60408 56700.00000 0 -9976074.890 -14547161.544 -18348082.884 10 0 60408 57600.00000 0 -7836747.903 -13484788.595 -20112703.179 10 0 60408 58500.00000 0 -5444112.170 -12514301.841 -21484099.626 10 0 60408 59400.00000 0 -2849746.209 -11680463.866 -22435515.551 10 0 60408 60300.00000 0 -113569.666 -11018644.647 -22948461.592 10 0 60408 61200.00000 0 2698424.600 -10553329.295 -23013074.435 10 0 60408 62100.00000 0 5516694.391 -10297109.873 -22628299.901 10 0 60408 63000.00000 0 8270821.038 -10250203.250 -21801897.627 10 0 60408 63900.00000 0 10892218.235 -10400513.953 -20550268.501 10 0 60408 64800.00000 0 13316762.876 -10724237.259 -18898109.857 10 0 60408 65700.00000 0 15487237.794 -11186974.505 -16877906.968 10 0 60408 66600.00000 0 17355484.959 -11745310.784 -14529272.772 10 0 60408 67500.00000 0 18884180.608 -12348785.636 -11898150.671 10 0 60408 68400.00000 0 20048160.369 -12942171.130 -9035897.800 10 0 60408 69300.00000 0 20835241.859 -13467959.194 -5998268.332 10 0 60408 70200.00000 0 21246513.751 -13868951.941 -2844317.953 10 0 60408 71100.00000 0 21296082.834 -14090845.160 364748.257 10 0 60408 72000.00000 0 21010293.179 -14084696.248 3566761.599 10 0 60408 72900.00000 0 20426453.301 -13809173.432 6699786.259 10 0 60408 73800.00000 0 19591127.192 -13232493.006 9703303.929 10 0 60408 74700.00000 0 18558062.516 -12333964.747 12519364.713 10 0 60408 75600.00000 0 17385843.515 -11105082.277 15093683.679 10 0 60408 76500.00000 0 16135366.654 -9550114.045 17376663.889 10 0 60408 77400.00000 0 14867243.572 -7686171.032 19324328.391 10 0 60408 78300.00000 0 13639238.111 -5542748.461 20899145.538 10 0 60408 79200.00000 0 12503842.341 -3160759.854 22070733.973 10 0 60408 80100.00000 0 11506090.416 -591102.022 22816435.604 10 0 60408 81000.00000 0 10681699.407 2107191.831 23121746.976 10 0 60408 81900.00000 0 10055612.934 4869137.300 22980601.558 10 0 60408 82800.00000 0 9641007.468 7626235.084 22395497.558 10 0 60408 83700.00000 0 9438802.588 10309060.910 21377468.134 10 0 60408 84600.00000 0 9437696.382 12849904.998 19945893.128 10 0 60408 85500.00000 0 9614726.023 15185354.255 18128153.911 10 0 60409 0.00000 0 9936332.095 17258711.764 15959135.674 10 0 60409 900.00000 0 10359884.661 19022154.999 13480582.780 10 0 60409 1800.00000 0 10835608.892 20438540.152 10740319.867 10 0 60409 2700.00000 0 11308831.922 21482780.017 7791347.359 10 0 60409 3600.00000 0 11722457.217 22142733.335 4690829.681 10 0 60409 4500.00000 0 12019562.745 22419567.263 1498993.344 10 0 60409 5400.00000 0 12146012.628 22327575.255 -1722044.154 10 0 60409 6300.00000 0 12052970.325 21893455.812 -4909491.670 10 0 60409 7200.00000 0 11699204.514 21155080.758 -8001123.251 10 0 60409 8100.00000 0 11053086.972 20159803.973 -10936512.722 10 0 60409 9000.00000 0 10094194.289 18962381.768 -13658237.807 10 0 60409 9900.00000 0 8814442.084 17622593.390 -16113027.811 10 0 60409 10800.00000 0 7218700.372 16202663.596 -18252829.958 10 0 60409 11700.00000 0 5324861.296 14764598.117 -20035771.237 10 0 60409 12600.00000 0 3163354.314 13367546.832 -21426994.913 10 0 60409 13500.00000 0 776128.013 12065308.181 -22399353.857 10 0 60409 14400.00000 0 -1784858.972 10904082.037 -22933946.202 10 0 60409 15300.00000 0 -4459574.161 9920567.149 -23020482.507 10 0 60409 16200.00000 0 -7182192.384 9140483.879 -22657477.520 10 0 60409 17100.00000 0 -9883625.080 8577584.162 -21852263.593 10 0 60409 18000.00000 0 -12494190.509 8233189.149 -20620826.724 10 0 60409 18900.00000 0 -14946312.123 8096271.976 -18987470.043 10 0 60409 19800.00000 0 -17177131.671 8144079.500 -16984313.123 10 0 60409 20700.00000 0 -19130927.815 8343263.727 -14650638.866 10 0 60409 21600.00000 0 -20761239.942 8651472.045 -12032102.667 10 0 60409 22500.00000 0 -22032610.009 9019326.171 -9179821.123 10 0 60409 23400.00000 0 -22921871.825 9392703.695 -6149359.748 10 0 60409 24300.00000 0 -23418936.776 9715223.944 -2999640.756 10 0 60409 25200.00000 0 -23527046.340 9930832.067 208206.891 10 0 60409 26100.00000 0 -23262484.216 9986371.840 3412032.241 10 0 60409 27000.00000 0 -22653763.283 9834039.085 6549858.977 10 0 60409 27900.00000 0 -21740324.159 9433613.292 9561071.246 10 0 60409 28800.00000 0 -20570801.862 8754374.925 12387566.805 10 0 60409 29700.00000 0 -19200934.227 7776629.452 14974856.763 10 0 60409 30600.00000 0 -17691199.760 6492775.586 17273092.689 10 0 60409 31500.00000 0 -16104282.893 4907874.122 19238003.440 10 0 60409 32400.00000 0 -14502470.946 3039694.052 20831726.033 10 0 60409 33300.00000 0 -12945089.260 918233.669 22023516.763 10 0 60409 34200.00000 0 -11486079.003 -1415264.556 22790330.826 10 0 60409 35100.00000 0 -10171816.119 -3909766.438 23117260.743 10 0 60409 36000.00000 0 -9039260.101 -6506308.363 22997826.004 10 0 60409 36900.00000 0 -8114508.124 -9140195.377 22434108.451 10 0 60409 37800.00000 0 -7411813.919 -11743447.452 21436730.146 10 0 60409 38700.00000 0 -6933112.272 -14247395.912 20024672.747 10 0 60409 39600.00000 0 -6668069.839 -16585325.256 18224939.846 10 0 60409 40500.00000 0 -6594661.604 -18695052.980 16072066.304 10 0 60409 41400.00000 0 -6680250.876 -20521341.552 13607481.239 10 0 60409 42300.00000 0 -6883129.656 -22018042.429 10878734.281 10 0 60409 43200.00000 0 -7154456.679 -23149882.064 7938597.468 10 0 60409 44100.00000 0 -7440513.137 -23893813.732 4844058.113 10 0 60409 45000.00000 0 -7685181.764 -24239876.374 1655220.777 10 0 60409 45900.00000 0 -7832544.566 -24191521.898 -1565861.009 10 0 60409 46800.00000 0 -7829488.245 -23765394.629 -4756400.395 10 0 60409 47700.00000 0 -7628205.085 -22990569.934 -7854115.595 10 0 60409 48600.00000 0 -7188480.585 -21907282.465 -10798465.269 10 0 60409 49500.00000 0 -6479667.626 -20565196.755 -13531854.684 10 0 60409 50400.00000 0 -5482260.009 -19021293.151 -16000786.649 10 0 60409 51300.00000 0 -4188995.284 -17337459.115 -18156932.284 10 0 60409 52200.00000 0 -2605437.142 -15577889.021 -19958098.348 10 0 60409 53100.00000 0 -750010.293 -13806404.114 -21369070.196 10 0 60409 54000.00000 0 1346515.312 -12083807.713 -22362312.357 10 0 60409 54900.00000 0 3642070.054 -10465389.058 -22918512.097 10 0 60409 55800.00000 0 6084816.078 -8998682.430 -23026954.958 10 0 60409 56700.00000 0 8615099.587 -7721576.673 -22685725.178 10 0 60409 57600.00000 0 11167741.035 -6660854.604 -21901727.840 10 0 60409 58500.00000 0 13674565.856 -5831222.793 -20690533.544 10 0 60409 59400.00000 0 16067068.450 -5234870.702 -19076050.196 10 0 60409 60300.00000 0 18279096.959 -4861575.066 -17090030.145 10 0 60409 61200.00000 0 20249445.941 -4689342.013 -14771424.234 10 0 60409 62100.00000 0 21924248.688 -4685556.389 -12165597.345 10 0 60409 63000.00000 0 23259070.009 -4808586.418 -9323422.575 10 0 60409 63900.00000 0 24220613.567 -5009772.855 -6300273.431 10 0 60409 64800.00000 0 24787974.652 -5235716.100 -3154935.013 10 0 60409 65700.00000 0 24953388.765 -5430762.854 51543.633 10 0 60409 66600.00000 0 24722447.749 -5539586.308 3257033.122 10 0 60409 67500.00000 0 24113777.447 -5509750.791 6399520.313 10 0 60409 68400.00000 0 23158193.180 -5294153.282 9418295.224 10 0 60409 69300.00000 0 21897370.534 -4853240.070 12255106.301 10 0 60409 70200.00000 0 20382088.483 -4156906.784 14855263.299 10 0 60409 71100.00000 0 18670118.791 -3186003.536 17168668.410 10 0 60409 72000.00000 0 16823849.392 -1933383.383 19150757.946 10 0 60409 72900.00000 0 14907739.603 -404451.084 20763338.758 10 0 60409 73800.00000 0 12985711.235 1382810.679 21975305.530 10 0 60409 74700.00000 0 11118581.756 3398339.393 22763227.056 10 0 60409 75600.00000 0 9361643.686 5600995.965 23111791.738 10 0 60409 76500.00000 0 7762488.355 7940033.860 23014104.600 10 0 60409 77400.00000 0 6359162.446 10356976.072 22471830.241 10 0 60409 78300.00000 0 5178732.509 12787825.458 21495178.381 10 0 60409 79200.00000 0 4236316.525 15165520.182 20102730.895 10 0 60409 80100.00000 0 3534623.009 17422535.488 18321111.700 10 0 60409 81000.00000 0 3064017.819 19493526.368 16184503.355 10 0 60409 81900.00000 0 2803117.364 21317903.003 13734016.954 10 0 60409 82800.00000 0 2719885.285 22842232.463 11016924.727 10 0 60409 83700.00000 0 2773188.490 24022366.200 8085767.614 10 0 60409 84600.00000 0 2914748.799 24825203.176 4997353.010 10 0 60409 85500.00000 0 3091409.104 25230012.672 1811660.660 10 0 60410 0.00000 0 3247618.690 25229258.745 -1409322.436 10 0 60410 900.00000 0 3328032.229 24828888.749 -4602817.093 10 0 60410 1800.00000 0 3280110.681 24048071.202 -7706488.057 10 0 60410 2700.00000 0 3056611.947 22918391.768 -10659681.258 10 0 60410 3600.00000 0 2617862.477 21482539.606 -13404631.679 10 0 60410 4500.00000 0 1933710.314 19792538.793 -15887617.523 10 0 60410 5400.00000 0 985073.360 17907599.583 -18060035.393 10 0 60410 6300.00000 0 -234985.900 15891680.956 -19879373.121 10 0 60410 7200.00000 0 -1720707.405 13810868.778 -21310059.164 10 0 60410 8100.00000 0 -3453627.650 11730681.849 -22324170.450 10 0 60410 9000.00000 0 -5403122.438 9713421.097 -22901983.821 10 0 60410 9900.00000 0 -7527475.791 7815675.078 -23032359.907 10 0 60410 10800.00000 0 -9775429.688 6086087.672 -22712952.162 10 0 60410 11700.00000 0 -12088148.624 4563482.049 -21950237.699 10 0 60410 12600.00000 0 -14401515.180 3275419.119 -20759370.545 10 0 60410 13500.00000 0 -16648658.888 2237249.455 -19163861.747 10 0 60410 14400.00000 0 -18762611.137 1451696.119 -17195094.365 10 0 60410 15300.00000 0 -20678973.889 908982.854 -14891684.772 10 0 60410 16200.00000 0 -22338490.077 587498.685 -12298704.674 10 0 60410 17100.00000 0 -23689408.302 454967.233 -9466780.870 10 0 60410 18000.00000 0 -24689543.811 470067.896 -6451092.018 10 0 60410 18900.00000 0 -25307951.136 584437.373 -3310283.301 10 0 60410 19800.00000 0 -25526140.635 744964.572 -105321.132 10 0 60410 20700.00000 0 -25338790.621 896280.353 3101689.267 10 0 60410 21600.00000 0 -24753928.101 983336.243 6248700.401 10 0 60410 22500.00000 0 -23792573.191 953963.372 9274910.480 10 0 60410 23400.00000 0 -22487864.373 761304.560 12121920.805 10 0 60410 24300.00000 0 -20883702.784 366018.458 14734841.739 10 0 60410 25200.00000 0 -19032972.944 -261835.367 17063327.834 10 0 60410 26100.00000 0 -16995414.075 -1141307.987 19062524.310 10 0 60410 27000.00000 0 -14835229.721 -2279530.480 20693908.994 10 0 60410 27900.00000 0 -12618533.358 -3671183.598 21926015.739 10 0 60410 28800.00000 0 -10410733.861 -5298490.016 22735027.359 10 0 60410 29700.00000 0 -8273966.745 -7131730.522 23105228.198 10 0 60410 30600.00000 0 -6264675.050 -9130264.539 23029308.541 10 0 60410 31500.00000 0 -4431437.865 -11244015.170 22508515.171 10 0 60410 32400.00000 0 -2813134.654 -13415360.208 21552644.625 10 0 60410 33300.00000 0 -1437520.370 -15581353.954 20179877.925 10 0 60410 34200.00000 0 -320270.211 -17676190.794 18416458.021 10 0 60410 35100.00000 0 535465.852 -19633811.002 16296213.692 10 0 60410 36000.00000 0 1138979.135 -21390542.458 13859936.340 10 0 60410 36900.00000 0 1511390.809 -22887669.392 11154618.960 10 0 60410 37800.00000 0 1684536.798 -24073821.075 8232569.423 10 0 60410 38700.00000 0 1699394.129 -24907079.702 5150413.116 10 0 60410 39600.00000 0 1604113.564 -25356717.274 1968002.801 10 0 60410 40500.00000 0 1451740.799 -25404486.078 -1252743.862 10 0 60410 41400.00000 0 1297722.549 -25045405.542 -4449056.473 10 0 60410 42300.00000 0 1197304.035 -24288009.285 -7558549.214 10 0 60410 43200.00000 0 1202929.925 -23154039.221 -10520457.661 10 0 60410 44100.00000 0 1361761.463 -21677597.335 -13276848.912 10 0 60410 45000.00000 0 1713418.100 -19903789.497 -15773778.955 10 0 60410 45900.00000 0 2288042.668 -17886917.876 -17962372.186 10 0 60410 46800.00000 0 3104775.263 -15688298.427 -19799799.659 10 0 60410 47700.00000 0 4170703.337 -13373796.377 -21250134.851 10 0 60410 48600.00000 0 5480334.630 -11011184.964 -22285068.672 10 0 60410 49500.00000 0 7015616.763 -8667440.204 -22884468.741 10 0 60410 50400.00000 0 8746503.342 -6406087.045 -23036771.561 10 0 60410 51300.00000 0 10632042.663 -4284709.554 -22739200.147 10 0 60410 52200.00000 0 12621942.420 -2352730.248 -21997803.553 10 0 60410 53100.00000 0 14658543.380 -649551.517 -20827318.734 10 0 60410 54000.00000 0 16679117.561 796864.029 -19250858.958 10 0 60410 54900.00000 0 18618392.915 1970916.798 -17299436.664 10 0 60410 55800.00000 0 20411197.199 2869761.086 -15011331.994 10 0 60410 56700.00000 0 21995109.258 3503150.648 -12431321.288 10 0 60410 57600.00000 0 23313006.221 3892749.273 -9609782.443 10 0 60410 58500.00000 0 24315400.162 4070939.197 -6601696.284 10 0 60410 59400.00000 0 24962467.361 4079181.195 -3465564.801 10 0 60410 60300.00000 0 25225686.819 3965998.501 -262268.296 10 0 60410 61200.00000 0 25089021.524 3784671.937 2946115.712 10 0 60410 62100.00000 0 24549595.482 3590744.890 6097508.848 10 0 60410 63000.00000 0 23617840.643 3439443.889 9131020.799 10 0 60410 63900.00000 0 22317109.793 3383123.188 11988108.717 10 0 60410 64800.00000 0 20682773.340 3468839.933 14613686.223 10 0 60410 65700.00000 0 18760838.690 3736160.437 16957162.479 10 0 60410 66600.00000 0 16606149.983 4215288.055 18973393.465 10 0 60410 67500.00000 0 14280242.408 4925589.636 20623529.425 10 0 60410 68400.00000 0 11848938.799 5874581.150 21875744.421 10 0 60410 69300.00000 0 9379786.110 7057414.430 22705835.930 10 0 60410 70200.00000 0 6939435.443 8456886.845 23097684.472 10 0 60410 71100.00000 0 4591071.383 10043974.738 23043565.395 10 0 60410 72000.00000 0 2391994.467 11778870.517 22544307.037 10 0 60410 72900.00000 0 391454.588 13612482.979 21609291.665 10 0 60410 73800.00000 0 -1371176.528 15488341.657 20256297.922 10 0 60410 74700.00000 0 -2867818.880 17344829.203 18511185.857 10 0 60410 75600.00000 0 -4082625.169 19117651.943 16407428.166 10 0 60410 76500.00000 0 -5012409.366 20742448.134 13985493.964 10 0 60410 77400.00000 0 -5666543.736 22157426.747 11292094.189 10 0 60410 78300.00000 0 -6066326.960 23305927.148 8379300.674 10 0 60410 79200.00000 0 -6243848.125 24138792.102 5303553.733 10 0 60410 80100.00000 0 -6240392.743 24616453.111 2124576.054 10 0 60410 81000.00000 0 -6104456.893 24710638.164 -1095786.823 10 0 60410 81900.00000 0 -5889452.917 24405627.119 -4294776.844 10 0 60410 82800.00000 0 -5651204.123 23698998.627 -7409960.155 10 0 60410 83700.00000 0 -5445335.889 22601833.934 -10380464.577 10 0 60410 84600.00000 0 -5324675.795 21138366.202 -13148191.641 10 0 60410 85500.00000 0 -5336775.680 19345087.991 -15658977.105 99